Terug naar catalogus

STARLINK-35912

ActiefCommunicatieVLEO
NORAD 66882·PAYLOAD·🇺🇸 United States

Gelanceerd Dec 4, 2025 vanaf Vandenberg Space Force Base

Loading…

Volgende Passages (komende 24 uur)

TLE

VersSource: CelesTrak SupGP

Epoch: Sep 15, 2026, 03:42 UTC

1 66882C 25283E   26258.15465278 -.00059209  00000+0 -17494-2 0  2582
2 66882  53.1580 220.3771 0001408  91.1314 317.3284 15.34418180    12

Volg STARLINK-35912 in realtime met AllMySat

Download on the App Store